STARLINK-3821, 52357

Orbit data source: Space-Track

STARLINK-3821, 52357 is a payload satellite owned by SpaceX/Seattle (US) in LEO that was launched on Fri, 29 Apr 2022 UTC via an FALCON 9 launch vehicle from the Air Force Eastern Test Range (AFETR). Payload-class satellites include a variety of spacecraft equipped with specific instruments for various scientific and technological missions. These include communications satellites like Starlink; space stations such as the ISS; scientific satellites like the Hubble; Earth observation satellites from companies like Planet Labs, Umbra, and HawkEye 360; GPS; miniature CubeSats for education and research; and military/defense satellites.

Loading next visibility...
Identifier
52357, 2022-045AC
Orbit
LEO
Country
Flag of USUS
Related business
Manufacturer
SpaceX/Seattle
Mission
Operational Commercial Communications
Bus & Motor
STARLINK, Unknown motor
Mass
297 kg wet, ~275 kg dry
Launch date (UTC)
2022-04-29 (4 years ago)
Launch vehicle
FALCON 9
Launch site
Air Force Eastern Test Range (AFETR)
Object type
Payload
Rocket body
Debris
Shape & HBR
Box + 1 Pan, 10.1 m
Radar Cross Section
11.087 m², Large (>1 m²)

Expand to show TLE details & history
Last TLE update: 9 hours ago

TLE from 9 hours ago
0 STARLINK-3821
1 52357U 22045AC  26119.88514441  .00000375  00000-0  41682-4 0  9999
2 52357  53.2190 329.2981 0001412  91.3264 268.7890 15.08838086223511
Epoch: 2026-04-29T21:14Z
TLE epoch observation values (Epoch: 2026-04-29T21:14:36.477Z)
Latitude
Longitude
152.80643°
Altitude
540.668 km
Speed
7.593 km/s
True Right ascension
21h 57m 11s
True Declination
0° 00' 00"
Sunlit
Object was in daylight at epoch
Visualization orbit readout
Latitude
Unknown
Longitude
Unknown
Altitude
Unknown
Speed
Unknown
Apparent Right ascension
Unknown
Apparent Declination
Unknown
Sunlit
N/A
Visualization observer readout
Local Sidereal Time
13:41:15
Azimuth
Unknown
Elevation
Unknown
Doppler factor
Unknown
Orbital elements
Apogee altitude
540.971 km
Perigee altitude
539.017 km
Semi-major axis
6,918.131 km
Eccentricity
0.00014
Inclination
53.219°
RAAN
329.2981°
Arg. of periapsis
91.3264°
True anomaly
268.77282°
Mean anomaly
268.789°
Eccentric anomaly
268.78091°
Mean motion
3.7719 °/min
Orbital period
95.44 mins
BSTAR
0.000041682
Loading maneuver chart data...
Computing Atmospheric mass density...
Loading historical data...
Loading historical data...
Loading historical data...
Loading historical data...
Loading historical data...
Loading historical data...
Loading historical data...

Documentation

Showing up to 5 results
|